Weather Roundup
Issued by NWS Springfield, MO

Home | Current Version | Previous Version | Text Only | Print | Product List | Glossary On
Versions: 1 2 3 4 5 6 7 8 9 10 11 12 13 14 15 16 17 18 19 20 21 22 23 24 25 26 27 28 29 30 31 32 33 34 35 36 37 38 39 40 41 42 43 44 45 46 47 48 49 50
000
NZUS99 KSGF 230607
HRRSGF

HOURLY WEATHER
NATIONAL WEATHER SERVICE SPRINGFIELD MO
100 AM CDT TUE SEP 23 2014

......SGF CWA......

CITY           SKY/WX    TMP DP  RH WIND       PRES   REMARKS
SPRINGFIELD    CLEAR     57  48  72 E6        30.23F
6HR MIN TEMP:  56; 6HR MAX TEMP:  69;

JOPLIN         CLEAR     58  51  78 E8        30.22F
6HR MIN TEMP:  58; 6HR MAX TEMP:  70;

WEST PLAINS    PTCLDY    50  47  89 CALM      30.26F
6HR MIN TEMP:  50; 6HR MAX TEMP:  66;

ROLLA          CLEAR     53  45  74 E8        30.25S
6HR MIN TEMP:  52; 6HR MAX TEMP:  65;

OSAGE BEACH    CLEAR     52  46  82 CALM      30.25S
BRANSON        CLEAR     52  50  93 CALM      30.25S

......SURROUNDING SGF CWA......

CITY           SKY/WX    TMP DP  RH WIND       PRES   REMARKS
CHANUTE        CLEAR     57  53  86 SE6       30.21S
PARSONS        PTCLDY    55  53  93 CALM      30.22S
COFFEYVILLE    PTCLDY    55  53  93 NE5       30.20F
EMPORIA        PTCLDY    56  53  90 SE6       30.21S
GROVE OK       CLEAR     55  55 100 CALM      30.23S
ROGERS AR      PTCLDY    57  54  89 E7        30.24S
SILOAM SPRINGS CLEAR     55  48  76 E5        30.23S
HARRISON AR    CLEAR     55  52  89 CALM      30.24S
NEAR YELLVILLE CLEAR     52  46  82 CALM      30.23F

......KANSAS AND MISSOURI......

CITY           SKY/WX    TMP DP  RH WIND       PRES   REMARKS
KANSAS CTY INT PTCLDY    56  51  84 S6        30.22F
DOWNTOWN KC    PTCLDY    63  52  67 CALM      30.21F
COLUMBIA       CLEAR     56  49  77 SE6       30.25S
SEDALIA        PTCLDY    54  50  86 S5        30.24S
ST JOSEPH      PTCLDY    54  52  93 CALM      30.22F
ST LOUIS       PTCLDY    57  50  77 CALM      30.26S
SPIRIT OF STL  CLEAR     49  48  97 CALM      30.25S
KIRKSVILLE     PTCLDY    51  32  48 CALM      30.25F
WICHITA        MOCLDY    63  50  62 SE10      30.18F
TOPEKA         CLEAR     55  51  86 CALM      30.21F
OLATHE         PTCLDY    57  51  80 SE5       30.22S

......TENNESSEE......

CITY           SKY/WX    TMP DP  RH WIND       PRES   REMARKS
MEMPHIS        CLEAR     62  47  57 NE7       30.21S
NASHVILLE      CLEAR     55  47  74 NE6       30.23S

......ARKANSAS.......

CITY           SKY/WX    TMP DP  RH WIND       PRES   REMARKS
FAYETTEVILLE   CLEAR     50  50 100 CALM      30.23S
FT SMITH       PTCLDY    61  57  87 CALM      30.20S
LITTLE ROCK    CLEAR     57  50  77 NE7       30.21F

......OKLAHOMA.......

CITY           SKY/WX    TMP DP  RH WIND       PRES   REMARKS
TULSA          MOCLDY    62  54  74 CALM      30.20R
PONCA CITY     MOCLDY    62  51  67 SE9       30.19S
MCALESTER      MOCLDY    61  54  77 E7        30.19F
OKLAHOMA CITY  MOCLDY    61  50  67 SE5       30.19S

......IOWA............

CITY           SKY/WX    TMP DP  RH WIND       PRES   REMARKS
DES MOINES     PTCLDY    57  50  77 S7        30.22S
QUAD CITIES    CLEAR     48  45  89 CALM      30.26S

......ILLINOIS........

CITY           SKY/WX    TMP DP  RH WIND       PRES   REMARKS
QUINCY         PTCLDY    53  45  74 SE5       30.25S
CHICAGO        CLEAR     54  45  71 S3        30.27S



USA.gov is the U.S. government's official web portal to all federal, state and local government web resources and services.